Regional Weather Roundup
Issued by NWS

Home | Current Version | Previous Version | Graphics & Text | Print | Product List | Glossary On
Versions: 1 2 3 4 5 6 7 8 9 10 11 12 13 14 15 16 17 18 19 20 21 22 23 24 25 26 27 28 29 30 31 32 33 34 35 36 37 38 39 40 41 42 43 44 45 46 47 48 49 50
000
ASUS45 KBOU 272207
RWRCO

WEATHER ROUNDUP FOR COLORADO
NATIONAL WEATHER SERVICE DENVER/BOULDER CO
400 PM MDT THU AUG 27 2015

NOTE: "FAIR" INDICATES FEW OR NO CLOUDS BELOW 12000 FEET WITH NO
SIGNIFICANT WEATHER AND/OR OBSTRUCTIONS TO VISIBILITY.

COZ001>005-013-030-031-272300-
...NORTHWEST COLORADO...

CITY           SKY/WX    TMP DP  RH WIND       PRES   REMARKS
CRAIG          FAIR      73  59  61 S10       30.24F
HAYDEN         NOT AVBL
MEEKER         FAIR      73  55  53 VRB5      30.27F
MOUNT WERNER   NOT AVBL
STEAMBOAT SPGS PTSUNNY   62  56  80 CALM      30.31F
WALDEN         PTSUNNY   61  46  59 N15       30.36S
$$

COZ006>008-011-272300-
...WEST CENTRAL VALLEYS...

CITY           SKY/WX    TMP DP  RH WIND       PRES   REMARKS
GRAND JUNCTION FAIR      81  57  43 SW6       30.17F
MONTROSE       FAIR      78  57  48 N7        30.26F
EAGLE          PTSUNNY   72  55  56 SW14      30.29F
RIFLE          LGT RAIN  72  59  63 W6        30.24F
DELTA          RAIN      84  51  32 W16       30.19F
NUCLA          FAIR      81  46  30 NW12G17   30.29F
$$

COZ017>023-064>068-272300-
...SOUTHWEST COLORADO...

CITY           SKY/WX    TMP DP  RH WIND       PRES   REMARKS
DURANGO        FAIR      72  54  53 CALM      30.29F
CORTEZ         LGT RAIN  78  55  44 NW6       30.24F
PAGOSA SPRINGS RAIN      63  56  79 CALM      30.38F
TELLURIDE      FAIR      66  50  56 W10       30.49F
WOLF CREEK PAS LGT RAIN  43  43 100 SW12      30.66F
$$

COZ009-010-012-014-032>034-037-058>063-272300-
...CENTRAL COLORADO...

CITY           SKY/WX    TMP DP  RH WIND       PRES   REMARKS
ASPEN          PTSUNNY   65  53  65 SW5       30.37F
BUENA VISTA    CLOUDY    69  49  50 N12       30.33F
COPPER MTN     CLOUDY    50  45  81 W20       30.63F VSB 1/4
BERTHOUD PASS  HAZE      41  28  60 NW21G28   30.66S VSB<1/4
COTTONWOOD PAS PTSUNNY   63  43  48 W9G20     30.48R
GUNNISON       CLOUDY    70  48  46 NW5       30.38F
KREMMLING      FAIR      63  52  67 SW6       30.36S THUNDER
LEADVILLE      PTSUNNY   62  43  49 NW13G23   30.47F
MONARCH PASS   LGT RAIN  45  43  93 W20G30    30.73S VSB<1/4
SALIDA         CLOUDY    76  47  35 W20G25    30.37S
SUNLIGHT       CLOUDY    55  52  88 CALM      30.61S
WILKERSON PASS PTSUNNY   63  39  42 NW7       30.59S
$$

COZ069>075-272300-
...SAN LUIS VALLEY/SANGRE DE CRISTO MOUNTAINS...

CITY           SKY/WX    TMP DP  RH WIND       PRES   REMARKS
ALAMOSA        FAIR      72  44  36 NW3       30.30F
LA VETA PASS   CLOUDY    63  37  39 S8G20     30.48F
SAGUACHE       FAIR      72  45  37 NW21G26   30.34F
$$

COZ035-036-038>040-272300-
...NORTHERN COLORADO FRONT RANGE...

CITY           SKY/WX    TMP DP  RH WIND       PRES   REMARKS
DENVER INTL AP PTSUNNY   78  54  43 N24G31    30.12R
DMNS CITY PARK   N/A     78  53  41 N15G29    30.12R
AURORA         PTSUNNY   79  53  40 N17       30.14R
FRONT RANGE AP PTSUNNY   77  50  38 N24G32    30.14R
ERIE MUNI ARPT PTSUNNY   74  55  52 N15G23    30.14R
BOULDER MUN AP DRIZZLE   73  55  53 N12G22    30.14R
CENTENNIAL     LGT RAIN  79  50  36 NW15G24   30.14S
BROOMFIELD     PTSUNNY   75  54  46 N18       30.16R
FORT COLLINS   PTSUNNY   75  55  50 N15       30.14S
LONGMONT       CLOUDY    70  62  76 N5G10     30.15R
$$

COZ041-046-047-076>085-087-088-272300-
...PIKES PEAK/PALMER DIVIDE AND SOUTHERN FOOTHILLS...

CITY           SKY/WX    TMP DP  RH WIND       PRES   REMARKS
COLO. SPRINGS  LGT RAIN  79  49  34 W8        30.17F
A. F. ACADEMY  PTSUNNY   78  47  33 SE6       30.17F
ELLICOTT       FAIR     N/A N/A N/A N7        30.15F THUNDER
FALCON         FAIR      76  48  37 NE6       30.23F
FORT CARSON    LGT RAIN  73  60  64 N7        30.13F
LIMON          FAIR      83  50  31 N16G23    30.10F
MONUMENT HILL  PTSUNNY   75  43  31 NE6       30.24S
TRINIDAD       FAIR      85  45  24 SE9       30.10F
$$

COZ042>045-048>051-090-091-272300-
...NORTHEAST COLORADO...

CITY           SKY/WX    TMP DP  RH WIND       PRES   REMARKS
GREELEY ARPT   FAIR      77  54  44 W14       30.11S
AKRON          FAIR      87  47  24 NW17G30   30.03S
BURLINGTON     PTSUNNY   89  45  21 W15       29.99F
WRAY           FAIR      92  53  26 NW10G28   29.93F
STERLING       PTSUNNY   88  57  35 N14G22    29.98S
HOLYOKE        FAIR      88  57  35 N16G24    29.95F
FORT MORGAN    CLOUDY    83  48  28 N18G24    30.05S
$$

COZ086-089-092>099-272300-
...SOUTHEAST COLORADO...

CITY           SKY/WX    TMP DP  RH WIND       PRES   REMARKS
PUEBLO         PTSUNNY   89  49  25 NE9       30.03F
LA JUNTA       FAIR      93  48  21 SW7       29.97F
LAMAR          FAIR      92  51  24 E6        29.93F
SPRINGFIELD      N/A     94  47  20 N7        29.98F
$$



USA.gov is the U.S. government's official web portal to all federal, state and local government web resources and services.